Location: Brantley
(31.5822°N, 86.2569°W)
Time: 05:11:50
(UTC+00:00)

Vanguard 3 - Pass Details

Date: 20 February 2026
Orbit: 507 x 3205 km, 33.3° (Epoch: 5 March)

Event Time Altitude Azimuth Distance (km) Brightness Sun altitude
Rises 23:36:44 0° 274° (W) 5,083 13.1 -0.9°
Reaches altitude 10° 23:40:50 10° 276° (W) 3,633 12.1 -1.8°
Maximum altitude 23:49:20 77° 3° (N) 968 7.6 -3.6°
Drops below altitude 10° 23:54:15 10° 89° (E) 2,157 8.7 -4.6°
Enters shadow 23:55:06 - 90° (E) 2,488 9.0 -4.8°
Sets 23:56:09 0° 91° (E) 2,906 - -5.0°
